Weather History for Mobridge, SD

Change the Weather History Date:

Tuesday, May 21, 2013

  Actual Average Record
Temperature  
Mean Temperature 48 °F 58 °F  
Max Temperature 49 °F 70 °F 94 °F (1964)
Min Temperature 46 °F 46 °F 23 °F (1931)
Degree Days  
Heating Degree Days 17 8  
Month to date heating degree days 250 225  
Since 1 July heating degree days 8148 7820  
Cooling Degree Days 0 1  
Month to date cooling degree days 13 3  
Year to date cooling degree days 13 4  
Moisture  
Dew Point 45 °F    
Average Humidity 93    
Maximum Humidity 100    
Minimum Humidity 86    
Precipitation  
Precipitation 0.20 in 0.10 in 1.65 in (1962)
Month to date precipitation 2.75 1.87  
Year to date precipitation 5.80 5.07  
Sea Level Pressure  
Sea Level Pressure 29.75 in    
Wind  
Wind Speed 19 mph (North)    
Max Wind Speed 32 mph    
Max Gust Speed 41 mph    
Visibility 6 miles    
Events Rain    
T = Trace of Precipitation, MM = Missing Value Source: NWS Daily Summary

Daily Weather History Graph

Daily Weather History Graph

Search for Another Location

Airport:

Trip Planner

Search our weather history database for the weather conditions in past years. The results will help you decide how hot, cold, wet, or windy it might be!

Date:

Astronomy

May. 21, 2013 Rise Set
Actual Time 6:04 AM CDT 9:12 PM CDT
Civil Twilight 5:28 AM CDT 9:48 PM CDT
Nautical Twilight 4:42 AM CDT 10:34 PM CDT
Astronomical Twilight 3:47 AM CDT 11:31 PM CDT
Moon 5:18 PM CDT 3:45 AM CDT
Length of Visible Light 16h 19m
Length of Day
15h 08m
Waxing Gibbous, 84% of the Moon is Illuminated
May 21
Waxing Gibbous
May 24
Full
May 31
Last Quarter
Jun 8
New
Jun 16
First Quarter

Hourly Weather History & Observations

Time (CDT) Temp. Windchill Dew Point Humidity Pressure Visibility Wind Dir Wind Speed Gust Speed Precip Events Conditions
12:13 AM 48.2 °F - 46.4 °F 93% 29.56 in 4.0 mi NNW 26.5 mph 36.8 mph 0.01 in Rain Rain
12:52 AM 48.9 °F - 46.9 °F 93% 29.57 in 5.0 mi NNW 26.5 mph 39.1 mph 0.06 in   Overcast
1:52 AM 48.0 °F - 46.0 °F 93% 29.57 in 4.0 mi North 24.2 mph 41.4 mph 0.01 in Rain Light Rain
2:52 AM 48.0 °F - 46.0 °F 93% 29.57 in 5.0 mi North 27.6 mph 39.1 mph 0.03 in   Overcast
3:52 AM 48.0 °F - 46.0 °F 93% 29.58 in 5.0 mi North 26.5 mph 38.0 mph 0.03 in Rain Light Rain
4:36 AM 48.2 °F - 46.4 °F 93% 29.59 in 3.0 mi North 26.5 mph 35.7 mph 0.01 in Rain Light Rain
4:52 AM 48.0 °F - 46.0 °F 93% 29.61 in 2.5 mi North 26.5 mph 34.5 mph 0.01 in Rain Light Rain
5:06 AM 48.2 °F - 46.4 °F 93% 29.61 in 3.0 mi North 25.3 mph 33.4 mph 0.00 in Rain Light Rain
5:52 AM 46.9 °F - 46.0 °F 97% 29.63 in 4.0 mi North 23.0 mph 33.4 mph 0.01 in Rain Light Rain
6:49 AM 46.4 °F 38.1 °F 46.4 °F 100% 29.65 in 2.0 mi North 24.2 mph 34.5 mph 0.01 in Rain Light Rain
6:52 AM 46.9 °F - 46.0 °F 97% 29.66 in 1.8 mi North 25.3 mph 34.5 mph 0.01 in Rain Light Rain
7:00 AM 46.4 °F 38.3 °F 46.4 °F 100% 29.65 in 2.5 mi North 23.0 mph 33.4 mph 0.00 in Rain Light Rain
7:35 AM 46.4 °F 38.5 °F 44.6 °F 93% 29.67 in 3.0 mi North 21.9 mph 32.2 mph 0.01 in Rain Light Rain
7:52 AM 46.9 °F - 45.0 °F 93% 29.69 in 4.0 mi North 23.0 mph 29.9 mph 0.01 in Rain Light Rain
8:02 AM 46.4 °F 39.0 °F 44.6 °F 93% 29.68 in 8.0 mi North 19.6 mph 31.1 mph 0.00 in   Overcast
8:35 AM 46.4 °F 38.5 °F 44.6 °F 93% 29.70 in 2.5 mi North 21.9 mph 32.2 mph 0.00 in   Overcast
8:52 AM 46.0 °F 38.8 °F 44.1 °F 93% 29.72 in 1.8 mi North 18.4 mph 28.8 mph 0.00 in   Overcast
8:57 AM 46.4 °F 38.3 °F 44.6 °F 93% 29.71 in 2.0 mi North 23.0 mph 28.8 mph N/A   Overcast
9:09 AM 46.4 °F 38.7 °F 44.6 °F 93% 29.71 in 6.0 mi North 20.7 mph 27.6 mph 0.01 in   Overcast
9:20 AM 46.4 °F 38.7 °F 44.6 °F 93% 29.71 in 5.0 mi North 20.7 mph 27.6 mph 0.01 in   Overcast
9:35 AM 46.4 °F 39.2 °F 44.6 °F 93% 29.72 in 9.0 mi North 18.4 mph 26.5 mph 0.01 in   Overcast
9:43 AM 46.4 °F 39.2 °F 44.6 °F 93% 29.72 in 10.0 mi North 18.4 mph 29.9 mph 0.01 in   Overcast
9:52 AM 46.0 °F 38.0 °F 44.1 °F 93% 29.75 in 5.0 mi North 21.9 mph 32.2 mph 0.01 in   Overcast
10:21 AM 46.4 °F 39.0 °F 44.6 °F 93% 29.75 in 4.0 mi North 19.6 mph 29.9 mph 0.00 in Rain Light Rain
10:52 AM 46.0 °F 38.5 °F 44.1 °F 93% 29.77 in 4.0 mi North 19.6 mph 25.3 mph 0.00 in Rain Light Rain
11:43 AM 46.4 °F 39.0 °F 42.8 °F 87% 29.76 in 4.0 mi North 19.6 mph 27.6 mph 0.00 in Rain Light Rain
11:52 AM 46.0 °F 38.3 °F 44.1 °F 93% 29.78 in 5.0 mi North 20.7 mph 27.6 mph 0.01 in Rain Light Rain
12:52 PM 46.0 °F 38.3 °F 44.1 °F 93% 29.79 in 9.0 mi NNW 20.7 mph 27.6 mph 0.00 in Rain Light Rain
1:52 PM 48.0 °F - 46.0 °F 93% 29.81 in 10.0 mi North 18.4 mph 27.6 mph 0.01 in   Overcast
2:52 PM 46.9 °F - 44.1 °F 90% 29.82 in 10.0 mi NNW 20.7 mph 27.6 mph 0.00 in Rain Light Rain
3:48 PM 48.2 °F - 44.6 °F 87% 29.81 in 10.0 mi North 19.6 mph 27.6 mph 0.02 in Rain Light Rain
3:52 PM 48.0 °F - 44.1 °F 86% 29.83 in 10.0 mi North 20.7 mph 27.6 mph 0.02 in Rain Light Rain
4:05 PM 48.2 °F - 44.6 °F 87% 29.81 in 10.0 mi North 17.3 mph 27.6 mph 0.00 in Rain Light Rain
4:52 PM 48.0 °F - 45.0 °F 89% 29.84 in 9.0 mi North 18.4 mph 26.5 mph 0.01 in   Overcast
5:52 PM 48.0 °F - 44.1 °F 86% 29.85 in 10.0 mi North 17.3 mph 24.2 mph 0.00 in   Overcast
6:52 PM 46.9 °F - 45.0 °F 93% 29.86 in 5.0 mi North 15.0 mph - 0.02 in Rain Light Rain
7:47 PM 46.4 °F 40.4 °F 44.6 °F 93% 29.84 in 10.0 mi North 13.8 mph - 0.01 in   Overcast
7:52 PM 46.9 °F - 45.0 °F 93% 29.86 in 10.0 mi North 12.7 mph - 0.01 in   Overcast
8:06 PM 46.4 °F 41.5 °F 44.6 °F 93% 29.84 in 10.0 mi North 10.4 mph - N/A   Overcast
8:44 PM 46.4 °F 40.7 °F 44.6 °F 93% 29.85 in 10.0 mi North 12.7 mph - N/A   Overcast
8:52 PM 46.9 °F - 44.1 °F 90% 29.87 in 10.0 mi North 11.5 mph - N/A   Overcast
9:01 PM 46.4 °F 41.1 °F 44.6 °F 93% 29.85 in 10.0 mi North 11.5 mph - N/A   Overcast
9:36 PM 46.4 °F 41.9 °F 44.6 °F 93% 29.85 in 10.0 mi North 9.2 mph - 0.00 in   Overcast
9:52 PM 46.9 °F - 45.0 °F 93% 29.88 in 10.0 mi North 10.4 mph - 0.00 in   Overcast
9:59 PM 46.4 °F 41.9 °F 44.6 °F 93% 29.86 in 10.0 mi North 9.2 mph - N/A   Overcast
10:39 PM 46.4 °F 41.5 °F 44.6 °F 93% 29.87 in 4.0 mi North 10.4 mph - N/A   Overcast
10:52 PM 46.9 °F - 45.0 °F 93% 29.90 in 5.0 mi North 9.2 mph - N/A   Overcast
11:38 PM 46.4 °F 41.5 °F 46.4 °F 100% 29.87 in 7.0 mi North 10.4 mph - N/A   Overcast
11:52 PM 46.9 °F - 46.0 °F 97% 29.90 in 10.0 mi North 9.2 mph - N/A   Overcast